Retour au catalogue

FENGYUN 1C DEB

LostSSO
NORAD 32189·DEBRIS·🇨🇳 China

Lancé May 10, 1999 depuis Taiyuan Satellite Launch Center

Loading…

Prochains Passages (prochaines 24 heures)

TLE

PériméSource: Space-Track

Époque: Sep 23, 2022, 00:11 UTC

1 32189U 99025CUK 22266.00801535  .00003896  00000-0  16674-2 0  9990
2 32189  98.9682 347.8411 0035411 192.9639 167.0633 14.25165115783294

Suivez FENGYUN 1C DEB en temps réel avec AllMySat

Download on the App Store